Regional Weather Roundup
Issued by NWS

Home | Current Version | Previous Version | Graphics & Text | Print | Product List | Glossary On
Versions: 1 2 3 4 5 6 7 8 9 10 11 12 13 14 15 16 17 18 19 20 21 22 23 24 25 26 27 28 29 30 31 32 33 34 35 36 37 38 39 40 41 42 43 44 45 46 47 48 49 50
718
ASUS43 KBIS 241610
RWRND

NORTH DAKOTA REGIONAL WEATHER ROUNDUP
NATIONAL WEATHER SERVICE BISMARCK ND
1100 AM CDT MON APR 24 2017

NOTE: "FAIR" INDICATES FEW OR NO CLOUDS BELOW 12,000 FEET WITH NO
SIGNIFICANT WEATHER AND/OR OBSTRUCTIONS TO VISIBILITY.


NDZ001>003-009>011-017-241700-
NORTHWEST NORTH DAKOTA

CITY           SKY/WX    TMP DP  RH WIND       PRES   REMARKS
WILLISTON      CLOUDY    33  27  78 E10       29.73S
MINOT          LGT SNOW  31  27  85 N10       29.72S FOG
MINOT AFB      LGT SNOW  30  27  88 E9        29.72  FOG
$$

NDZ018>021-031>035-040>046-241700-
SOUTHWEST NORTH DAKOTA

CITY           SKY/WX    TMP DP  RH WIND       PRES   REMARKS
BISMARCK       LGT RAIN  35  33  92 N12       29.66F
DICKINSON      CLOUDY    31  30  96 N5        29.63F
GARRISON         N/A     31  29  92 NE5       29.69S
HETTINGER ARPT CLOUDY    36  33  89 NW12      29.64F
$$

NDZ004>008-012>016-024-026-027-054-241700-
NORTHEAST NORTH DAKOTA

CITY           SKY/WX    TMP DP  RH WIND       PRES   REMARKS
GRAND FORKS    LGT RAIN  37  34  89 E9        29.68R
GRND FRKS AFB  LGTSLEET  32  32 100 N8        29.69R FOG
DEVILS LAKE    LGT SNOW  32  30  93 NE13      29.67F FOG
$$

NDZ022-023-025-028>030-036>039-047>053-241700-
SOUTHEAST NORTH DAKOTA

CITY           SKY/WX    TMP DP  RH WIND       PRES   REMARKS
FARGO          CLOUDY    49  36  61 E8        29.57F
JAMESTOWN      LGT RAIN  35  32  88 NE14      29.59F
$$





USA.gov is the U.S. government's official web portal to all federal, state and local government web resources and services.